SCP
0 0 0 0 0 0 0 0 0 0 0 0 0 0 0 0 0 0 0 0 0 0 0 0 0 0 0 0 0 0 0 0 0 0 0 0 0 0 0 0 0 0 0
0 0 0 0 0 0 0 0 0 0 0 0 0 0 0 0 0 0 0 0 0 0 0 0 0 0 0 0 0 0 0 0 0 0 0 0 0 0 0 0 0 0 0
0 0 0 0 0 0 0 0 0 0 0 0 0 0 0 0 0 0 0 0 0 0 0 0 0 0 0 0 0 0 0 0 0 0 0 0 0 0 0 0 0 0 0
0 0 0 0 0 0 0 0 0 0 0 0 0 0 0 0 0 0 0 0 0 0 0 0 0 0 0 0 0 0 0 0 0 0 0 0 0 0 0 0 0 0 0
0 0 0 0 0 0 0 0 0 0 0 0 0 0 0 0 0 0 0 0 0 0 0 0 0 0 0 0 0 0 0 0 0 0 0 0 0 0 0 0 0 0 0
0 0 0 0 0 0 0 0 0 0 0 0 0 0 0 0 0 0 0 0 0 0 0 0 0 0 0 0 0 0 0 0 0 0 0 0 0 0 0 0 0 0 0
0 0 0 1 1 1 1 0 0 0 0 0 0 0 0 0 0 0 0 0 0 0 0 0 0 0 0 0 0 0 0 0 0 0 0 0 0 0 0 0 0 0 0
0 0 0 1 1 1 1 1 0 0 0 0 0 0 0 0 0 0 0 0 0 0 0 0 0 0 0 0 0 0 0 0 0 0 -0 0 0 0 0 0 0 0 0
0 0 0 1 1 1 1 1 1 0 0 0 0 0 0 0 0 0 0 0 0 0 0 0 0 0 0 0 0 0 0 0 0 0 0 0 0 0 0 0 1 0 0
0 0 0 0 1 1 1 1 1 0 0 0 0 0 0 0 0 0 0 0 0 0 0 0 0 0 0 0 0 0 0 0 0 0 0 0 0 0 0 1 1 1 1
0 0 0 0 0 0 0 1 1 0 0 0 0 0 0 0 0 0 0 0 0 0 0 0 0 0 0 0 0 0 0 0 0 0 0 0 0 0 0 1 1 1 1
1 1 1 1 1 1 0 0 0 0 0 0 0 0 0 0 0 0 0 0 0 0 0 0 0 0 0 0 0 0 0 0 0 0 0 0 0 0 1 1 1 1 1
1 1 1 1 1 1 0 0 1 0 0 0 0 0 0 0 0 0 0 0 0 0 0 0 0 0 0 0 0 0 0 0 0 0 0 0 1 1 1 1 1 1 1
1 1 1 1 1 1 1 1 1 1 0 0 0 0 0 0 0 0 0 0 0 0 1 1 1 1 0 0 0 0 0 0 0 0 0 1 1 1 1 1 1 1 1
1 1 1 1 1 1 1 1 1 1 1 1 0 0 1 1 1 0 0 0 1 1 1 1 1 1 1 0 0 0 0 0 0 1 1 1 1 1 1 2 2 1 1
1 1 1 1 1 1 1 1 1 1 1 1 1 1 1 1 1 1 1 1 1 1 1 1 1 1 1 1 0 0 0 0 0 1 1 1 1 1 1 2 2 2 1
2 2 2 2 2 2 2 2 2 1 1 1 1 1 1 1 2 1 1 1 1 1 1 1 1 1 1 1 1 1 1 1 0 0 0 1 1 1 1 2 2 2 2
2 2 2 2 2 2 2 2 2 2 2 1 1 1 2 2 2 2 2 2 2 2 2 1 1 1 1 1 1 1 1 0 0 0 0 0 1 1 1 1 1 2 2
2 2 3 3 2 2 2 2 2 2 2 1 1 1 2 2 2 3 3 2 2 2 2 1 1 1 1 1 1 1 0 0 0 0 0 0 0 0 1 1 1 1 2
2 2 2 2 2 3 3 2 2 2 2 2 2 2 1 2 2 2 3 3 2 2 2 1 1 1 1 1 1 0 0 0 0 0 0 0 0 0 0 1 1 1 1
1 2 2 2 2 2 2 2 2 2 2 2 2 2 2 2 2 2 2 2 2 2 2 1 1 1 1 1 1 0 0 0 0 0 0 0 0 0 0 0 0 1 1
1 1 1 1 1 2 2 2 2 2 2 2 2 2 2 2 2 2 2 2 2 2 2 1 1 1 1 1 1 0 0 0 0 0 0 0 0 0 0 0 0 0 0
0 0 1 1 1 1 1 1 1 1 2 2 2 2 2 2 2 2 2 2 2 2 2 1 1 1 1 1 0 0 0 0 0 0 0 0 0 0 0 0 0 0 0
0 0 0 1 1 1 1 1 1 1 1 1 1 1 1 1 1 1 2 2 2 2 1 1 1 1 1 1 0 0 0 0 0 0 0 0 0 0 0 0 0 0 0
0 0 1 1 1 1 1 1 1 1 1 1 1 1 1 1 1 1 1 1 1 1 1 1 1 1 1 1 0 0 0 0 0 0 0 0 0 0 0 0 0 0 0
0 0 1 1 1 1 1 0 0 0 0 0 0 0 1 1 1 1 1 1 1 1 1 1 1 1 1 1 0 0 0 0 0 0 0 0 0 0 0 0 0 0 0
Wind_Speed
10 12 19 20 19 17 16 15 15 15 15 15 15 15 15 14 14 13 13 12 12 11 11 11 11 11 11 11 11 11 11 10 10 10 10 10 10 9 8 10 11 8 11
13 14 19 20 19 18 17 16 15 14 14 14 14 14 13 13 12 12 12 11 11 10 10 10 10 10 9 9 9 9 8 8 7 8 8 7 7 7 7 10 11 7 10
16 13 17 19 19 18 17 16 15 14 14 14 13 13 12 12 11 11 10 10 10 9 9 9 8 8 8 7 6 6 5 4 4 4 5 3 3 5 7 10 11 10 9
17 11 14 20 19 19 17 16 15 15 14 13 13 12 12 11 10 10 9 9 8 8 8 8 7 7 6 6 5 3 2 2 1 2 2 3 4 6 8 10 11 10 9
14 10 15 22 20 19 17 16 15 15 14 14 13 12 12 11 10 10 9 8 8 8 7 7 7 7 6 6 5 4 4 4 4 4 3 3 4 8 10 11 11 11 10
12 10 14 21 20 19 18 16 15 15 14 14 13 12 12 11 11 10 10 9 8 8 7 7 7 7 7 6 6 6 6 6 6 3 3 4 5 11 14 13 13 12 11
13 10 13 20 19 19 18 17 15 15 14 14 13 13 12 12 11 11 10 10 9 8 8 7 7 7 7 7 7 7 7 8 5 4 4 4 5 11 15 15 15 14 13
16 12 11 20 19 18 18 17 16 15 15 14 14 13 12 12 12 11 11 11 10 10 9 9 9 8 8 8 9 9 9 9 7 6 4 4 7 12 16 16 15 15 15
15 13 10 11 14 18 18 17 16 15 15 14 14 13 13 13 12 12 12 12 12 12 11 11 11 11 10 10 10 11 11 12 7 5 7 5 7 11 16 16 16 15 15
12 11 9 9 8 9 11 17 17 16 16 15 15 14 14 13 13 13 11 12 14 14 14 14 13 13 12 11 12 13 13 12 7 6 5 7 12 13 15 17 17 16 16
11 9 9 9 8 7 7 13 14 16 15 15 13 15 13 7 7 8 12 15 16 16 16 16 15 15 13 13 14 15 13 6 6 6 6 11 15 15 16 18 18 18 17
13 11 10 10 9 8 9 7 5 7 7 7 6 7 6 5 6 9 11 18 18 18 18 18 17 15 12 6 10 13 6 8 7 7 8 15 17 17 17 18 19 18 17
14 14 12 11 10 10 6 5 4 4 4 6 7 8 6 5 5 7 5 9 12 15 10 10 11 8 7 6 5 5 7 7 5 6 8 16 17 18 18 18 19 18 17
14 14 13 12 11 11 7 6 6 5 5 6 8 9 7 5 6 6 6 6 6 6 7 7 5 7 8 8 9 8 9 6 6 5 8 16 18 18 18 18 18 18 18
13 13 13 12 12 11 9 6 8 7 7 8 8 9 10 8 8 8 6 6 7 6 7 7 7 7 8 8 9 9 9 9 8 8 6 13 16 16 17 19 20 20 19
11 11 12 13 12 10 9 8 7 7 7 7 8 10 12 10 9 8 7 7 7 7 7 7 8 7 7 6 8 8 8 7 7 7 7 8 13 15 17 19 21 21 21
6 7 9 10 10 10 9 9 7 7 7 7 8 10 12 11 10 9 8 7 7 6 7 5 6 5 5 5 6 6 5 6 6 6 6 5 6 12 17 20 21 21 22
3 4 4 6 7 8 7 6 5 5 5 5 5 6 10 12 12 9 8 7 6 5 5 5 4 4 4 4 4 4 4 4 6 7 6 6 5 6 11 19 21 22 22
4 3 3 2 4 5 4 4 5 4 4 4 4 4 6 9 10 9 7 6 5 4 4 4 3 3 3 4 4 4 5 5 6 7 7 7 7 7 7 11 19 22 23
6 5 3 2 1 1 2 3 4 5 5 5 4 5 6 5 7 7 6 6 5 3 3 3 3 3 3 3 5 5 5 5 5 6 7 7 6 8 8 8 8 12 20
5 6 4 3 2 1 1 2 4 5 5 5 5 7 6 6 6 6 6 5 5 5 5 5 4 4 4 3 2 4 5 6 7 6 5 5 6 6 5 5 5 5 6
6 6 5 4 2 1 1 2 3 4 4 4 4 5 6 6 6 6 7 6 6 5 6 7 6 4 4 4 3 2 3 4 4 5 3 2 3 3 4 3 2 3 3
5 5 4 3 2 1 1 1 2 2 3 3 4 4 5 6 6 6 6 6 6 6 6 7 6 6 5 4 4 4 3 4 3 3 3 1 2 3 3 3 1 1 1
4 4 4 3 3 1 1 1 1 2 3 4 4 4 5 5 5 5 5 5 6 6 6 7 7 6 6 5 4 4 4 4 2 3 3 2 2 2 3 3 2 2 1
5 5 4 4 2 1 1 1 0 2 3 4 4 5 5 5 5 4 4 4 5 5 7 7 6 7 6 6 5 3 4 3 4 3 4 3 3 2 2 2 1 2 2
5 4 4 3 2 1 1 0 0 2 4 5 5 5 5 4 4 4 4 4 4 5 6 7 6 6 6 6 5 4 4 3 3 3 4 3 2 2 2 2 2 2 1
Wind_Direction
155 159 155 153 151 147 144 140 134 130 126 122 119 117 115 113 112 112 113 113 113 111 109 108 106 104 103 103 104 107 110 113 114 115 116 116 112 105 102 115 114 106 107
150 157 154 154 152 149 146 143 140 137 133 130 128 127 125 123 121 120 120 120 119 118 116 113 111 109 108 107 107 109 110 112 114 117 120 122 121 110 101 124 123 122 118
146 153 153 153 153 151 149 148 146 144 142 139 138 137 137 135 133 131 130 129 127 126 125 125 123 120 118 117 116 116 115 114 116 127 134 141 149 142 128 127 131 130 129
146 150 153 155 154 153 153 152 151 151 150 149 149 149 149 149 148 146 144 142 140 139 139 140 140 139 140 142 145 150 156 164 185 210 199 205 203 182 166 150 147 146 146
145 149 157 156 156 155 156 157 157 157 158 158 159 161 162 163 163 162 161 161 158 156 157 158 159 160 164 170 180 196 219 240 248 252 254 246 229 206 193 176 167 163 164
146 150 159 157 158 158 159 161 163 164 166 167 168 170 172 174 176 177 176 177 176 176 177 178 178 181 185 192 202 216 232 250 262 250 244 249 226 212 204 192 183 179 179
148 154 160 160 161 161 162 165 168 170 173 175 176 178 181 183 186 186 187 189 191 193 195 195 198 200 204 210 218 228 239 253 259 255 248 241 223 212 208 200 193 189 190
152 157 162 165 165 166 167 169 173 176 179 182 184 187 189 191 193 195 196 198 201 206 210 212 213 216 218 221 226 234 242 251 261 268 273 256 236 221 216 208 201 197 196
155 159 164 168 169 171 172 174 178 182 185 188 191 193 196 198 201 204 205 206 210 214 218 221 223 224 226 227 231 237 244 250 251 254 269 270 265 236 223 214 208 206 204
158 165 167 168 169 172 176 181 184 187 191 194 197 199 202 204 207 211 212 215 218 221 224 226 228 229 230 231 234 240 246 253 247 244 251 259 262 248 233 222 215 211 210
161 170 172 172 172 174 179 189 189 193 197 199 203 205 206 211 214 217 221 222 225 227 229 231 233 234 235 237 239 242 248 242 237 244 245 251 254 252 243 229 220 216 215
170 177 180 180 179 178 188 188 191 198 203 204 205 211 208 208 217 223 230 231 231 232 234 235 237 239 240 240 244 247 243 241 238 242 244 248 251 254 249 232 222 219 218
175 179 182 185 184 185 196 186 194 203 203 211 214 216 216 216 224 230 230 237 237 237 236 238 238 235 235 237 239 238 240 243 237 237 242 246 250 252 246 231 222 220 220
175 184 182 184 187 192 197 193 194 203 206 212 219 218 215 220 225 228 230 229 226 227 225 227 229 231 235 240 242 245 246 243 239 235 242 247 249 247 239 225 219 221 223
179 186 183 186 191 194 197 198 198 207 212 214 217 219 217 218 224 227 229 228 225 219 218 221 225 232 235 239 242 243 245 242 239 237 244 250 247 239 230 224 221 223 227
177 182 182 189 195 194 197 201 203 206 215 219 220 220 218 220 224 226 229 225 221 214 214 216 221 225 230 233 238 240 242 243 241 240 241 249 247 238 230 228 227 227 229
166 170 176 192 199 199 203 203 203 206 210 216 222 224 222 221 223 224 227 225 220 209 205 209 216 217 225 228 235 241 245 248 253 252 251 248 247 243 236 233 233 232 232
136 147 156 190 204 209 216 220 220 216 216 222 223 225 225 224 224 223 225 226 217 203 196 201 204 209 225 228 234 245 249 253 260 261 260 256 248 250 243 239 237 237 237
104 122 145 183 198 207 228 243 250 255 251 249 242 234 229 227 226 225 226 225 212 207 208 213 209 208 228 238 243 249 251 252 257 265 265 262 251 245 243 243 240 239 239
91 95 112 106 78 179 229 266 275 270 264 260 255 254 249 239 232 226 230 225 209 202 218 217 221 226 230 238 260 266 259 255 255 258 265 268 262 255 247 244 241 242 241
91 90 89 89 91 129 208 231 246 255 258 261 257 256 254 249 240 229 231 219 207 208 215 216 216 230 239 222 245 279 275 260 257 258 261 271 279 278 268 251 238 236 243
105 102 95 93 109 133 211 235 246 256 262 257 265 270 266 261 252 245 233 221 210 215 219 221 214 213 229 200 191 231 291 307 278 258 256 260 297 315 312 302 272 245 246
112 120 124 133 132 142 213 260 300 309 308 308 299 290 284 278 266 250 237 225 215 214 225 223 215 210 224 222 198 190 206 245 296 300 268 277 342 337 323 314 329 325 248
148 148 150 156 154 159 129 70 330 309 295 286 287 287 293 288 283 269 249 231 222 216 219 223 216 210 213 226 220 213 208 195 213 291 305 303 323 323 319 324 348 9 43
176 173 172 169 177 185 155 137 328 296 282 288 296 302 302 298 291 283 263 244 233 227 226 224 221 213 210 215 208 201 214 214 203 210 272 303 324 314 322 333 5 29 50
192 183 175 172 194 213 195 256 300 298 302 310 312 310 305 299 296 294 281 261 246 234 227 225 220 214 209 211 205 197 189 190 192 192 224 262 290 300 333 4 35 44 52